STARLINK-32456, 62041

Orbit data source: Space-Track

STARLINK-32456, 62041 is a payload satellite owned by SpaceX/Seattle (US) in LEO that was launched on Thu, 21 Nov 2024 UTC via an FALCON 9 launch vehicle from the Air Force Eastern Test Range (AFETR). Payload-class satellites include a variety of spacecraft equipped with specific instruments for various scientific and technological missions. These include communications satellites like Starlink; space stations such as the ISS; scientific satellites like the Hubble; Earth observation satellites from companies like Planet Labs, Umbra, and HawkEye 360; GPS; miniature CubeSats for education and research; and military/defense satellites.

Loading next visibility...
Identifier
62041, 2024-216K
Orbit
LEO
Country
Flag of USUS
Related business
Manufacturer
SpaceX/Seattle
Mission
Operational Commercial Communications
Bus & Motor
STARLINK V2M, Unknown motor
Mass
730 kg wet, ~700 kg dry
Launch date (UTC)
2024-11-21 (1 year ago)
Launch vehicle
FALCON 9
Launch site
Air Force Eastern Test Range (AFETR)
Object type
Payload
Rocket body
Debris
Shape & HBR
Box + 2 Pan, 17.7 m
Radar Cross Section
33.884 m², Large (>1 m²)

Expand to show TLE details & history
Last TLE update: 1 day ago

TLE from 1 day ago
0 STARLINK-32456
1 62041U 24216K   25312.79615625  .00044046  00000-0  15980-2 0  9995
2 62041  43.0069 219.3198 0003148 264.4971  95.5521 15.27630402 55387
Epoch: 2025-11-08T19:06Z
TLE epoch observation values (Epoch: 2025-11-08T19:06:27.899Z)
Latitude
-0.00009°
Longitude
-115.51717°
Altitude
482.884 km
Speed
7.626 km/s
True Right ascension
14h 37m 16s
True Declination
0° 00' 00"
Sunlit
Object was in daylight at epoch
Visualization orbit readout
Latitude
Unknown
Longitude
Unknown
Altitude
Unknown
Speed
Unknown
Apparent Right ascension
Unknown
Apparent Declination
Unknown
Sunlit
N/A
Visualization observer readout
Local Sidereal Time
18:03:44
Azimuth
Unknown
Elevation
Unknown
Doppler factor
Unknown
Orbital elements
Apogee altitude
487.003 km
Perigee altitude
482.682 km
Semi-major axis
6,862.979 km
Eccentricity
0.00031
Inclination
43.0069°
RAAN
219.3198°
Arg. of periapsis
264.4971°
True anomaly
95.588°
Mean anomaly
95.5521°
Eccentric anomaly
95.57005°
Mean motion
3.81746 °/min
Orbital period
94.3 mins
BSTAR
0.001598
Loading maneuver chart data...
Computing Atmospheric mass density...
Loading historical data...
Loading historical data...
Loading historical data...
Loading historical data...
Loading historical data...
Loading historical data...
Loading historical data...

Documentation

Showing up to 5 results
|